Track STARLINK-2095 now! 10-day predictions STARLINK-2095 is classified as:
1 47679U 21012BM 22181.52148931 .00000415 00000-0 46785-4 0 9990 2 47679 53.0556 3.7951 0001478 87.0205 273.0953 15.06391324 76798